"Period start","avg(HW err(1)/warn(2) (#))","avg(Visibility (m))","avg(Weather code (#))","avg(Precip intensity (mm/h))","min(HW err(1)/warn(2) (#))","max(HW err(1)/warn(2) (#))","std(HW err(1)/warn(2) (#))","med(HW err(1)/warn(2) (#))","min(Visibility (m))","max(Visibility (m))","std(Visibility (m))","med(Visibility (m))","min(Weather code (#))","max(Weather code (#))","std(Weather code (#))","med(Weather code (#))","min(Precip intensity (mm/h))","max(Precip intensity (mm/h))","std(Precip intensity (mm/h))","med(Precip intensity (mm/h))"
2017-05-06 00:00:00,2,6404,71,1.19,2,2,0,2,3789,10811,1815,6074,71,71,0,71,0.25,1.90,0.56,1.20
2017-05-06 00:10:00,2,5391,71,1.35,2,2,0,2,4339,7794,1125,4892,71,71,0,71,0.85,1.85,0.32,1.43
2017-05-06 00:20:00,2,2753,71,2.60,2,2,0,2,1375,6238,1366,2281,71,71,0,71,1.00,4.25,1.19,2.67
2017-05-06 00:30:00,2,2832,71,1.82,2,2,0,2,1865,4743,859,2730,71,71,0,71,0.45,4.05,1.11,2.05
2017-05-06 00:40:00,2,11280,71,0.37,2,2,0,2,7602,15314,2611,10597,71,71,0,71,0.05,0.75,0.22,0.40
2017-05-06 00:50:00,2,13478,71,0.35,2,2,0,2,6974,20909,4975,12964,71,71,0,71,0.05,0.85,0.28,0.25
2017-05-06 01:00:00,2,20338,71,0.10,2,2,0,2,14513,26532,4226,19843,71,71,0,71,0.05,0.20,0.04,0.10
2017-05-06 01:10:00,2,14107,71,0.17,2,2,0,2,9409,20722,3740,13854,71,71,0,71,0.00,0.55,0.16,0.10
2017-05-06 01:20:00,2,5374,71,0.33,2,2,0,2,2966,7673,1505,5800,71,71,0,71,0.05,0.60,0.15,0.33
2017-05-06 01:30:00,2,3122,71,0.75,2,2,0,2,1854,6376,1232,2780,71,71,0,71,0.20,2.30,0.62,0.55
2017-05-06 01:40:00,2,2914,71,1.71,2,2,0,2,1688,4366,946,2726,71,71,0,71,0.35,3.95,1.11,1.48
2017-05-06 01:50:00,2,3285,71,2.06,2,2,0,2,1326,7206,1652,2734,71,71,0,71,0.15,5.80,1.58,1.65
2017-05-06 02:00:00,2,3737,71,1.86,2,2,0,2,1579,5688,1439,3981,71,71,0,71,0.40,5.55,1.66,1.15
2017-05-06 02:10:00,2,5644,71,0.56,2,2,0,2,3505,9063,1742,4833,71,71,0,71,0.10,1.30,0.38,0.40
2017-05-06 02:20:00,2,3670,71,0.84,2,2,0,2,2291,6630,1309,3416,71,71,0,71,0.25,1.70,0.46,0.75
2017-05-06 02:30:00,2,5376,71,0.45,2,2,0,2,2678,9019,2017,4834,71,71,0,71,0.05,1.15,0.33,0.33
2017-05-06 02:40:00,2,6144,71,0.77,2,2,0,2,3755,11174,2727,4784,71,71,0,71,0.10,1.50,0.48,0.78
2017-05-06 02:50:00,2,4549,71,1.03,2,2,0,2,2750,6743,1368,4373,71,71,0,71,0.35,2.40,0.63,0.88
2017-05-06 03:00:00,2,3598,71,1.56,2,2,0,2,1470,5245,1054,3695,71,71,0,71,0.40,4.75,1.20,1.53
2017-05-06 03:10:00,2,4525,71,1.17,2,2,0,2,2973,7502,1652,3612,71,71,0,71,0.25,2.65,0.79,1.00
2017-05-06 03:20:00,2,4635,71,0.97,2,2,0,2,2216,7857,1492,4596,71,71,0,71,0.15,1.90,0.61,0.93
2017-05-06 03:30:00,2,4034,71,1.43,2,2,0,2,1952,6897,1636,3640,71,71,0,71,0.30,5.05,1.34,0.98
2017-05-06 03:40:00,2,4685,71,1.14,2,2,0,2,2376,7029,1418,5142,71,71,0,71,0.30,3.05,0.85,0.85
2017-05-06 03:50:00,2,4864,71,1.32,2,2,0,2,1897,10319,2400,4547,71,71,0,71,0.05,3.50,1.03,0.83
2017-05-06 04:00:00,2,1665,71,4.87,2,2,0,2,1056,2127,318,1731,71,71,0,71,2.90,7.85,1.67,4.78
2017-05-06 04:10:00,2,4929,71,1.15,2,2,0,2,3809,7383,1054,4724,71,71,0,71,0.15,2.15,0.66,1.27
2017-05-06 04:20:00,2,7148,71,0.81,2,2,0,2,2451,13223,2926,6179,71,71,0,71,0.15,2.55,0.71,0.60
2017-05-06 04:30:00,2,5067,71,1.53,2,2,0,2,2763,8705,1885,4906,71,71,0,71,0.40,3.15,0.80,1.48
2017-05-06 04:40:00,2,4817,71,1.61,2,2,0,2,2055,9946,2567,3817,71,71,0,71,0.50,3.20,0.93,1.68
2017-05-06 04:50:00,2,4525,71,1.84,2,2,0,2,1915,11211,2653,3959,71,71,0,71,0.15,2.95,0.90,2.00
2017-05-06 05:00:00,2,8125,71,1.44,2,2,0,2,1519,17331,5196,7576,71,71,0,71,0.00,4.35,1.76,0.43
2017-05-06 05:10:00,2,11740,71,0.25,2,2,0,2,9439,15552,1928,10996,71,71,0,71,0.05,0.55,0.17,0.30
2017-05-06 05:20:00,2,5791,71,1.02,2,2,0,2,3486,8379,1393,5966,71,71,0,71,0.30,1.60,0.44,0.90
2017-05-06 05:30:00,2,5782,71,1.02,2,2,0,2,3455,7715,1404,6002,71,71,0,71,0.45,1.95,0.45,1.02
2017-05-06 05:40:00,2,4051,71,2.02,2,2,0,2,2462,5571,947,4232,71,71,0,71,1.20,3.80,0.72,1.95
2017-05-06 05:50:00,2,6211,71,1.01,2,2,0,2,3414,9838,2052,6131,71,71,0,71,0.20,1.65,0.47,1.12
2017-05-06 06:00:00,2,4478,71,1.80,2,2,0,2,2761,5963,1101,4850,71,71,0,71,0.90,4.35,1.02,1.45
2017-05-06 06:10:00,2,3941,71,2.04,2,2,0,2,1781,6061,1273,4099,71,71,0,71,0.70,4.90,1.28,1.62
2017-05-06 06:20:00,2,5110,71,1.54,2,2,0,2,2408,8166,2108,4664,71,71,0,71,0.35,3.45,0.89,1.33
2017-05-06 06:30:00,2,2935,71,2.95,2,2,0,2,1917,5267,1024,2588,71,71,0,71,0.90,5.30,1.23,2.97
2017-05-06 06:40:00,2,4200,71,2.04,2,2,0,2,2139,7716,1639,3741,71,71,0,71,0.35,3.05,0.82,2.20
2017-05-06 06:50:00,2,7219,71,1.19,2,2,0,2,2585,10927,2718,7140,71,71,0,71,0.10,3.25,1.08,0.80
2017-05-06 07:00:00,2,7474,71,1.03,2,2,0,2,2718,14533,3513,7350,71,71,0,71,0.30,2.80,0.81,0.70
2017-05-06 07:10:00,2,2868,71,2.62,2,2,0,2,2072,3793,579,2924,71,71,0,71,0.80,3.90,0.86,2.73
2017-05-06 07:20:00,2,3162,71,3.12,2,2,0,2,1422,5862,1337,3333,71,71,0,71,1.05,6.85,2.04,2.17
2017-05-06 07:30:00,2,5714,71,1.11,2,2,0,2,4373,7766,1155,5508,71,71,0,71,0.60,1.85,0.40,1.10
2017-05-06 07:40:00,2,5973,71,0.92,2,2,0,2,3465,9668,1600,5779,71,71,0,71,0.50,1.75,0.41,0.80
2017-05-06 07:50:00,2,4976,71,0.99,2,2,0,2,2134,7566,1685,4970,71,71,0,71,0.25,3.10,0.81,0.82
2017-05-06 08:00:00,2,5240,71,1.33,2,2,0,2,3118,9214,1696,4872,71,71,0,71,0.10,3.10,0.95,1.02
2017-05-06 08:10:00,2,8138,71,0.24,2,2,0,2,5797,12041,1904,7128,71,71,0,71,0.00,0.65,0.20,0.17
2017-05-06 08:20:00,2,10466,71,0.14,2,2,0,2,6283,16492,2857,9820,71,71,0,71,0.05,0.30,0.09,0.15
2017-05-06 08:30:00,2,13585,71,0.23,2,2,0,2,5122,26815,6343,12900,71,71,0,71,0.00,1.20,0.35,0.05
2017-05-06 08:40:00,2,14968,75,0.06,2,2,0,2,10185,20776,3616,14668,71,77,3,77,0.00,0.20,0.06,0.05
2017-05-06 08:50:00,2,20765,77,0.04,2,2,0,2,12550,33881,6350,19323,77,77,0,77,0.00,0.05,0.02,0.05
2017-05-06 09:00:00,2,14180,74,0.24,2,2,0,2,5206,20402,5405,14853,71,77,3,74,0.00,1.30,0.38,0.05
2017-05-06 09:10:00,2,11677,71,0.13,2,2,0,2,7330,16816,2950,11524,71,71,0,71,0.00,0.35,0.13,0.10
2017-05-06 09:20:00,2,25160,71,0.02,2,2,0,2,14789,36905,7095,25145,71,71,0,71,0.00,0.10,0.03,0.00
2017-05-06 09:30:00,2,28147,71,0.05,2,2,0,2,22051,32966,2937,28184,71,71,0,71,0.00,0.15,0.04,0.05
2017-05-06 09:40:00,2,26082,73,0.10,2,2,0,2,13901,36602,7338,28700,71,77,3,71,0.00,0.50,0.14,0.05
2017-05-06 09:50:00,2,22095,71,0.29,2,2,0,2,13513,38564,8927,17724,71,71,0,71,0.00,0.70,0.25,0.25
2017-05-06 10:00:00,2,29919,71,0.10,2,2,0,2,18714,39155,6054,28678,71,71,0,71,0.00,0.20,0.07,0.10
2017-05-06 10:10:00,2,26656,71,0.08,2,2,0,2,17398,38616,5806,25732,71,71,0,71,0.00,0.15,0.06,0.08
2017-05-06 10:20:00,2,24560,71,0.05,2,2,0,2,14937,30485,4573,25452,71,71,0,71,0.00,0.15,0.05,0.05
2017-05-06 10:30:00,2,21140,71,0.28,2,2,0,2,12197,30027,6522,21882,71,71,0,71,0.00,0.95,0.31,0.12
2017-05-06 10:40:00,2,21113,71,0.19,2,2,0,2,11078,30900,5104,21888,71,71,0,71,0.05,0.45,0.13,0.12
2017-05-06 10:50:00,2,24473,71,0.12,2,2,0,2,17898,31708,4597,25162,71,71,0,71,0.00,0.35,0.12,0.08
2017-05-06 11:00:00,2,17226,71,0.27,2,2,0,2,11070,25449,4490,17211,71,71,0,71,0.05,0.50,0.15,0.25
2017-05-06 11:10:00,2,18406,71,0.22,2,2,0,2,13299,29349,4476,16800,71,71,0,71,0.00,0.55,0.20,0.10
2017-05-06 11:20:00,2,15152,71,0.36,2,2,0,2,9526,19288,3233,15854,71,71,0,71,0.10,0.80,0.23,0.28
2017-05-06 11:30:00,2,20162,71,0.14,2,2,0,2,14624,25545,3205,20056,71,71,0,71,0.00,0.25,0.09,0.15
2017-05-06 11:40:00,2,16584,71,0.18,2,2,0,2,13009,22310,2862,15516,71,71,0,71,0.00,0.65,0.21,0.10
2017-05-06 11:50:00,2,15641,71,0.24,2,2,0,2,8759,20917,3956,16708,71,71,0,71,0.05,0.70,0.19,0.17
2017-05-06 12:00:00,2,12379,71,0.30,2,2,0,2,9153,17628,2604,11682,71,71,0,71,0.05,0.80,0.23,0.25
2017-05-06 12:10:00,2,12763,71,0.29,2,2,0,2,9419,15855,1992,12512,71,71,0,71,0.05,0.80,0.23,0.23
2017-05-06 12:20:00,2,11625,71,0.41,2,2,0,2,9243,15136,1721,11138,71,71,0,71,0.20,0.80,0.16,0.38
2017-05-06 12:30:00,2,12302,71,0.38,2,2,0,2,8914,15292,1986,12242,71,71,0,71,0.10,0.80,0.23,0.40
2017-05-06 12:40:00,2,11604,71,0.40,2,2,0,2,8847,14710,1526,11230,71,71,0,71,0.10,0.80,0.23,0.33
2017-05-06 12:50:00,2,15774,71,0.27,2,2,0,2,9952,23345,4142,14294,71,71,0,71,0.00,0.80,0.25,0.15
2017-05-06 13:00:00,2,11379,71,0.48,2,2,0,2,7667,14848,2468,11475,71,71,0,71,0.15,1.00,0.30,0.40
2017-05-06 13:10:00,2,12732,71,0.36,2,2,0,2,10268,15328,1557,12028,71,71,0,71,0.10,0.85,0.21,0.33
2017-05-06 13:20:00,2,14504,71,0.35,2,2,0,2,12085,18745,1951,14460,71,71,0,71,0.05,0.80,0.25,0.28
2017-05-06 13:30:00,2,11745,71,0.45,2,2,0,2,8238,14430,2002,11978,71,71,0,71,0.20,0.95,0.21,0.42
2017-05-06 13:40:00,2,9606,71,0.44,2,2,0,2,7484,11103,1131,9652,71,71,0,71,0.20,0.85,0.20,0.35
2017-05-06 13:50:00,2,9368,71,0.54,2,2,0,2,7735,12756,1402,9247,71,71,0,71,0.20,0.85,0.23,0.47
2017-05-06 14:00:00,2,8469,71,0.82,2,2,0,2,6290,11950,1639,8196,71,71,0,71,0.30,1.40,0.29,0.85
2017-05-06 14:10:00,2,8537,71,0.60,2,2,0,2,7076,9438,674,8819,71,71,0,71,0.25,1.10,0.25,0.60
2017-05-06 14:20:00,2,8965,71,0.57,2,2,0,2,6830,10173,971,9004,71,71,0,71,0.30,1.00,0.20,0.50
2017-05-06 14:30:00,2,8038,71,0.71,2,2,0,2,7037,9502,842,7604,71,71,0,71,0.40,1.15,0.22,0.75
2017-05-06 14:40:00,2,7188,71,0.91,2,2,0,2,6002,8864,1005,6898,71,71,0,71,0.20,1.85,0.48,0.92
2017-05-06 14:50:00,2,8150,71,0.72,2,2,0,2,6025,10457,1234,8120,71,71,0,71,0.35,1.25,0.24,0.73
2017-05-06 15:00:00,2,8500,71,0.75,2,2,0,2,6444,9862,1276,9040,71,71,0,71,0.45,1.25,0.23,0.73
2017-05-06 15:10:00,2,11312,71,0.43,2,2,0,2,8462,13771,1966,11632,71,71,0,71,0.15,0.65,0.19,0.48
2017-05-06 15:20:00,2,14856,71,0.34,2,2,0,2,12026,17695,2181,14404,71,71,0,71,0.05,0.55,0.18,0.40
2017-05-06 15:30:00,2,14931,71,0.16,2,2,0,2,11227,19009,2693,15004,71,71,0,71,0.05,0.30,0.08,0.15
2017-05-06 15:40:00,2,16160,71,0.19,2,2,0,2,12991,19367,1978,15722,71,71,0,71,0.05,0.60,0.17,0.10
2017-05-06 15:50:00,2,15205,71,0.35,2,2,0,2,11640,20306,2578,14910,71,71,0,71,0.05,0.80,0.25,0.35
2017-05-06 16:00:00,2,14321,71,0.35,2,2,0,2,9043,19172,3219,15387,71,71,0,71,0.10,0.65,0.17,0.30
2017-05-06 16:10:00,2,19759,71,0.17,2,2,0,2,15368,23680,2818,19569,71,71,0,71,0.00,0.65,0.18,0.08
2017-05-06 16:20:00,2,33186,71,0.06,2,2,0,2,18058,50000,9765,31988,71,71,0,71,0.00,0.25,0.09,0.00
2017-05-06 16:30:00,2,42274,76,0.02,2,2,0,2,35397,50000,5396,41388,71,77,2,77,0.00,0.05,0.02,0.00
2017-05-06 16:40:00,2,46494,77,0.01,2,2,0,2,40001,50000,3516,47662,77,77,0,77,0.00,0.10,0.03,0.00
2017-05-06 16:50:00,2,41746,72,0.03,2,2,0,2,32426,48152,5724,44348,71,77,2,71,0.00,0.25,0.08,0.00
2017-05-06 17:00:00,2,45131,76,0.01,2,2,0,2,38547,50000,3254,45057,71,78,3,78,0.00,0.05,0.02,0.00
2017-05-06 17:10:00,2,47674,78,0.01,2,2,0,2,43936,50000,1977,47835,78,78,0,78,0.00,0.05,0.02,0.00
2017-05-06 17:20:00,2,48910,78,0.00,2,2,0,2,44354,50000,1720,49710,78,78,0,78,0.00,0.00,0.00,0.00
2017-05-06 17:30:00,2,48594,55,0.00,2,2,0,2,44368,50000,2195,50000,0,78,36,78,0.00,0.00,0.00,0.00
2017-05-06 17:40:00,2,50000,0,0.00,2,2,0,2,50000,50000,0,50000,0,0,0,0,0.00,0.00,0.00,0.00
2017-05-06 17:50:00,2,48964,0,0.00,2,2,0,2,42704,50000,2278,50000,0,0,0,0,0.00,0.00,0.00,0.00
2017-05-06 18:00:00,2,50000,0,0.00,2,2,0,2,50000,50000,0,50000,0,0,0,0,0.00,0.00,0.00,0.00
2017-05-06 18:10:00,2,49780,0,0.00,2,2,0,2,48237,50000,531,50000,0,0,0,0,0.00,0.00,0.00,0.00
2017-05-06 18:20:00,2,49833,0,0.00,2,2,0,2,48650,50000,406,50000,0,0,0,0,0.00,0.00,0.00,0.00
2017-05-06 18:30:00,2,48760,0,0.00,2,2,0,2,40709,50000,2839,50000,0,0,0,0,0.00,0.00,0.00,0.00
2017-05-06 18:40:00,2,49390,0,0.00,2,2,0,2,43902,50000,1829,50000,0,0,0,0,0.00,0.00,0.00,0.00
2017-05-06 18:50:00,2,49605,0,0.00,2,2,0,2,46325,50000,1096,50000,0,0,0,0,0.00,0.00,0.00,0.00
2017-05-06 19:00:00,2,50000,0,0.00,2,2,0,2,50000,50000,0,50000,0,0,0,0,0.00,0.00,0.00,0.00
2017-05-06 19:10:00,2,49276,0,0.00,2,2,0,2,45953,50000,1389,50000,0,0,0,0,0.00,0.00,0.00,0.00
2017-05-06 19:20:00,2,50000,0,0.00,2,2,0,2,50000,50000,0,50000,0,0,0,0,0.00,0.00,0.00,0.00
2017-05-06 19:30:00,2,48835,0,0.00,2,2,0,2,43449,50000,2117,50000,0,0,0,0,0.00,0.00,0.00,0.00
2017-05-06 19:40:00,2,49357,0,0.00,2,2,0,2,46623,50000,1287,50000,0,0,0,0,0.00,0.00,0.00,0.00
2017-05-06 19:50:00,2,48974,0,0.00,2,2,0,2,44452,50000,1681,50000,0,0,0,0,0.00,0.00,0.00,0.00
2017-05-06 20:00:00,2,48028,0,0.00,2,2,0,2,42905,50000,2410,49398,0,0,0,0,0.00,0.00,0.00,0.00
2017-05-06 20:10:00,2,49623,0,0.00,2,2,0,2,48602,50000,515,50000,0,0,0,0,0.00,0.00,0.00,0.00
2017-05-06 20:20:00,2,49144,0,0.00,2,2,0,2,45731,50000,1502,50000,0,0,0,0,0.00,0.00,0.00,0.00
2017-05-06 20:30:00,2,49120,0,0.00,2,2,0,2,47072,50000,1087,49919,0,0,0,0,0.00,0.00,0.00,0.00
2017-05-06 20:40:00,2,46386,0,0.00,2,2,0,2,38141,50000,4276,48131,0,0,0,0,0.00,0.00,0.00,0.00
2017-05-06 20:50:00,2,44967,0,0.00,2,2,0,2,39793,50000,3594,44295,0,0,0,0,0.00,0.00,0.00,0.00
2017-05-06 21:00:00,2,41972,0,0.00,2,2,0,2,32847,49158,5091,43438,0,0,0,0,0.00,0.00,0.00,0.00
2017-05-06 21:10:00,2,41809,0,0.00,2,2,0,2,34206,48870,4684,41304,0,0,0,0,0.00,0.00,0.00,0.00
2017-05-06 21:20:00,2,42522,0,0.00,2,2,0,2,35714,50000,5908,41838,0,0,0,0,0.00,0.00,0.00,0.00
2017-05-06 21:30:00,2,41349,0,0.00,2,2,0,2,35666,49952,4774,40526,0,0,0,0,0.00,0.00,0.00,0.00
2017-05-06 21:40:00,2,38647,0,0.00,2,2,0,2,28114,47072,4876,38037,0,0,0,0,0.00,0.00,0.00,0.00
2017-05-06 21:50:00,2,40645,37,0.01,2,2,0,2,30976,50000,6287,39924,0,78,37,36,0.00,0.05,0.02,0.00
2017-05-06 22:00:00,2,36418,52,0.01,2,2,0,2,32770,43751,3255,36290,0,78,34,71,0.00,0.05,0.02,0.00
2017-05-06 22:10:00,2,37187,52,0.01,2,2,0,2,25761,50000,6862,36479,0,78,34,71,0.00,0.05,0.02,0.00
2017-05-06 22:20:00,2,40889,76,0.02,2,2,0,2,31839,50000,5899,39328,71,78,3,78,0.00,0.10,0.04,0.00
2017-05-06 22:30:00,2,42462,71,0.01,2,2,0,2,31316,50000,6014,44508,71,71,0,71,0.00,0.05,0.02,0.00
2017-05-06 22:40:00,2,36211,78,0.00,2,2,0,2,19837,50000,9795,34463,77,78,0,78,0.00,0.00,0.00,0.00
2017-05-06 22:50:00,2,31792,0,0.00,2,2,0,2,22176,45925,6198,31774,0,0,0,0,0.00,0.00,0.00,0.00
2017-05-06 23:00:00,2,37903,69,0.01,2,2,0,2,22849,48101,7711,38332,0,78,23,78,0.00,0.05,0.02,0.00
2017-05-06 23:10:00,2,36877,75,0.02,2,2,0,2,26579,49466,7111,36331,71,78,3,78,0.00,0.10,0.03,0.00
2017-05-06 23:20:00,2,31490,37,0.00,2,2,0,2,25049,40348,4795,30836,0,78,37,36,0.00,0.00,0.00,0.00
2017-05-06 23:30:00,2,38013,0,0.00,2,2,0,2,22566,50000,8937,40712,0,0,0,0,0.00,0.00,0.00,0.00
2017-05-06 23:40:00,2,40564,0,0.00,2,2,0,2,32072,50000,5324,39048,0,0,0,0,0.00,0.00,0.00,0.00
2017-05-06 23:50:00,2,44135,0,0.00,2,2,0,2,36563,50000,4917,44056,0,0,0,0,0.00,0.00,0.00,0.00
